Regional Weather Roundup
Issued by NWS

Home | Current Version | Previous Version | Text Only | Print | Product List | Glossary Off
Versions: 1 2 3 4 5 6 7 8 9 10 11 12 13 14 15 16 17 18 19 20 21 22 23 24 25 26 27 28 29 30 31 32 33 34 35 36 37 38 39 40 41 42 43 44 45 46 47 48 49 50

000
ASUS43 KLOT 010521
RWRIL

ILLINOIS REGIONAL WEATHER ROUNDUP
NATIONAL WEATHER SERVICE CHICAGO/ROMEOVILLE IL
1200 AM CDT SAT AUG 01 2015

NOTE: "FAIR" INDICATES FEW OR NO CLOUDS BELOW 12,000 FEET WITH NO
SIGNIFICANT WEATHER AND/OR OBSTRUCTIONS TO VISIBILITY.

* THESE STATIONS ARE NOT UNDER NWS QUALITY CONTROL. THEY ALSO MAY NOT
  REPORT WEATHER SUCH AS PRECIPITATION OR FOG.

ILZ001-002-007-009-015-016-024-010600-
NORTHWEST ILLINOIS

CITY           SKY/WX    TMP DP  RH WIND       PRES   REMARKS
MOLINE         CLEAR     65  59  81 SW3       30.04R
STERLING*      CLEAR     63  57  82 NW7       30.01R
SAVANNA*       CLEAR     64  57  77 CALM      30.03S
$$

ILZ003-004-008-010-011-017-018-010600-
NORTH CENTRAL ILLINOIS

CITY           SKY/WX    TMP DP  RH WIND       PRES   REMARKS
ROCKFORD       CLEAR     63  54  72 SW3       30.02S
FREEPORT*      CLEAR     62  54  74 SW6       30.04S
ROCHELLE*      CLEAR     60  56  86 W6        30.03R
DE KALB*       CLEAR     64  55  70 W7        30.02S
PERU*          CLEAR     65  57  75 W5        30.03R
$$

ILZ005-006-012>014-019>023-010600-
NORTHEAST ILLINOIS

CITY           SKY/WX    TMP DP  RH WIND       PRES   REMARKS
CHICAGO-OHARE  CLEAR     70  52  52 W8        29.98R
CHICAGO-MIDWAY CLEAR     74  51  44 W7        29.98R
AURORA         CLEAR     59  55  87 W6        30.01R
LANSING*       CLEAR     68  52  57 W3        29.99R
JOLIET*        CLEAR     68  56  65 CALM      30.00R
WAUKEGAN       CLEAR     65  53  65 VRB3      29.97S
DUPAGE AIRPORT CLEAR     65  53  65 W6        29.99S
KANKAKEE*      CLEAR     65  61  85 W5        30.01R
WHEELING       CLEAR     71  51  49 NW8       29.99R
MORRIS*        CLEAR     62  58  88 NW6       30.00R
ROMEOVILLE*    CLEAR     66  53  62 W6        30.00R
NORTHERLY ISL    N/A     76  48  37 NW7         N/A
$$

LMZ740>746-010600-
SOUTHERN LAKE MICHIGAN

STATION/POSITION SKY/WX   TEMP    WIND        PRES    VSBY  WAVE
                          AIR SEA DIR/SP/G                  HT/PER
                          (F)     (DEG/KT/KT) (MB)    (MI)  (FT/S)
HARRISON CRIB              75     300/ 12/ 15   N/A
BURNHAM HARBOR             76     300/  7/  8   N/A
CALUMET HARBOR             75     290/  3/  5   N/A
BURNS HARBOR               75     300/  8/  9 1015.2S
MICHIGAN CITY              75     270/ 12/ 13   N/A
MICHIGAN CITY 6N           75 74  310/ 10/ 14   N/A           2/ 4
ST. JOSEPH                 75 74  330/ 12/ 14   N/A           2/ 4
$$

ILZ025>027-034>036-040-047-049-050-058-095>099-010600-
WEST-CENTRAL ILLINOIS

CITY           SKY/WX    TMP DP  RH WIND       PRES   REMARKS
QUINCY         CLEAR     78  65  63 NE5       30.06R HX  80
GALESBURG*     CLEAR     67  58  74 NW5       30.06S
MACOMB*        CLEAR     65  63  93 NW5       30.08R
JACKSONVILLE*  MOCLDY    74  70  85 CALM      30.06R
PITTSFIELD*    PTCLDY    73  68  86 CALM      30.07R
$$

ILZ028>032-037-038-041>044-048-051>054-059>061-010600-
CENTRAL ILLINOIS

CITY           SKY/WX    TMP DP  RH WIND       PRES   REMARKS
PONTIAC        CLEAR     65  62  90 W5        30.03R
BLOOMINGTON    CLEAR     74  57  55 NW10      30.05R
DECATUR        MOCLDY    75  64  68 W5        30.04R
PEORIA         CLEAR     73  59  61 NW3       30.04R
LACON*         CLEAR     67  58  72 CALM      30.03R
LINCOLN*       CLEAR     73  63  72 CALM      30.04R
SPRINGFIELD    PTCLDY    74  69  85 W5        30.05R
TAYLORVILLE    PTCLDY    70  68  94 W3        30.05R
$$

ILZ033-039-045-046-055>057-062-063-010600-
EAST-CENTRAL ILLINOIS

CITY           SKY/WX    TMP DP  RH WIND       PRES   REMARKS
CHAMPAIGN      CLEAR     67  62  84 NW5       30.03R
DANVILLE*      CLEAR     65  61  88 W5        29.99R
RANTOUL*       CLEAR     69  63  82 NW7       30.02R
MATTOON        PTCLDY    73  61  65 W6        30.03R
PARIS*         CLEAR     67  62  86 CALM      30.03R
$$

ILZ079-100>102-010600-
SOUTHWEST ILLINOIS

CITY           SKY/WX    TMP DP  RH WIND       PRES   REMARKS
ALTON          CLEAR     69  67  94 CALM      30.06R
BELLEVILLE     CLEAR     71  71  99 N2        30.04S
CAHOKIA*       CLEAR     71  67  87 CALM      30.05R
SPARTA*        CLEAR     77  65  67 CALM      30.06S
$$

ILZ064>066-069>071-074>076-080>082-084>086-088>090-092>094-010600-
SOUTH-CENTRAL ILLINOIS

CITY           SKY/WX    TMP DP  RH WIND       PRES   REMARKS
CARBONDALE     CLEAR     73  70  90 SW3       30.05S
CAIRO*         CLEAR     72  71  98 CALM      30.05S
EFFINGHAM*     LGT RAIN  74  67  78 W8        30.06R
MARION         CLEAR     75  72  88 SW3       30.06R
MT. VERNON     CLEAR     68  63  83 CALM      30.05F
CENTRALIA*     CLEAR     68  65  90 CALM      30.05S
SALEM*         CLEAR     71  67  88 CALM      30.05S
METROPOLIS*    CLEAR     71  71 100 CALM      30.06S
$$

ILZ067-068-072-073-078-083-087-091-010600-
SOUTHEAST ILLINOIS

CITY           SKY/WX    TMP DP  RH WIND       PRES   REMARKS
LAWRENCEVILLE  PTCLDY    72  69  90 SW5       30.03R
FLORA*         CLEAR     72  67  85 W5        30.04S
FAIRFIELD*     CLEAR     70  69  96 CALM      30.03S
HARRISBURG*    CLEAR     71  71  99 CALM      30.06R
ROBINSON*      PTCLDY    68  66  94 CALM      30.04R
CARMI*         CLEAR     73  67  81 CALM      30.03S
$$

ABBREVIATIONS USED IN REMARKS
   TC - TEMPERATURE IN CELSIUS
  WCI - WIND CHILL INDEX
   HX - HEAT INDEX
  VSB - VISIBILITY
$$



USA.gov is the U.S. government's official web portal to all federal, state and local government web resources and services.